Columbus AFB, MS

5:40 AM CDT on April 23, 2018 (GMT -0500)
Columbus Air Force Base

Weather History for KCBM - January, 2012

Change the Weather History Date:

Monday, January 2, 2012

  Actual Average Record
Temperature  
Mean Temperature 40 °F -  
Max Temperature 48 °F 53 °F 73 °F (1997)
Min Temperature 33 °F 35 °F 11 °F (2018)
Degree Days  
Heating Degree Days 24    
Moisture  
Dew Point 14 °F    
Average Humidity 36    
Maximum Humidity 54    
Minimum Humidity 21    
Precipitation  
Precipitation 0.00 in - - ()
Sea Level Pressure  
Sea Level Pressure 30.42 in    
Wind  
Wind Speed 12 mph (NW)    
Max Wind Speed 22 mph    
Max Gust Speed 34 mph    
Visibility 10 miles    
Events      
Averages and records for this station are not official NWS values.
T = Trace of Precipitation, MM = Missing Value Source: NWS Daily Summary

Daily Weather History Graph

Daily Weather History Graph

Search for Another Location

Airport or City:

Astronomy

Jan. 02, 2012 Rise Set
Actual Time 6:58 AM CST 4:56 PM CST
Civil Twilight 6:31 AM CST 5:24 PM CST
Nautical Twilight 5:59 AM CST 5:55 PM CST
Astronomical Twilight 5:29 AM CST 6:25 PM CST
Moon 12:06 PM CST (1/2) 12:59 AM CST (1/2)
Length of Visible Light 10h 53m
Length of Day
9h 58m
Waxing Gibbous, 64% of the Moon is Illuminated
Jan 2
Waxing Gibbous
Jan 9
Full
Jan 16
Last Quarter
Jan 23
New
Jan 30
First Quarter

Hourly Weather History & Observations

Time (CST) Temp. Windchill Dew Point Humidity Pressure Visibility Wind Dir Wind Speed Gust Speed Precip Events Conditions
12:55 AM 41.5 °F 36.4 °F 23.7 °F 49% 30.39 in 10.0 mi NW 8.1 mph - N/A   Clear
1:55 AM 39.9 °F 34.5 °F 22.6 °F 50% 30.39 in 10.0 mi NNW 8.1 mph - N/A   Clear
2:55 AM 38.5 °F 33.4 °F 21.9 °F 51% 30.39 in 10.0 mi NW 6.9 mph - N/A   Clear
3:55 AM 37.8 °F 30.2 °F 21.2 °F 51% 30.39 in 10.0 mi NW 11.5 mph - N/A   Clear
4:55 AM 36.7 °F 29.4 °F 20.7 °F 52% 30.40 in 10.0 mi NW 10.4 mph - N/A   Clear
5:55 AM 35.1 °F 29.3 °F 19.4 °F 53% 30.41 in 10.0 mi NW 6.9 mph - N/A   Clear
6:55 AM 33.8 °F 26.4 °F 18.9 °F 54% 30.42 in 10.0 mi NW 9.2 mph - N/A   Clear
7:55 AM 36.5 °F 29.2 °F 18.0 °F 47% 30.46 in 10.0 mi NW 10.4 mph - N/A   Clear
8:55 AM 40.6 °F 32.0 °F 16.0 °F 37% 30.48 in 10.0 mi NW 17.3 mph 26.5 mph N/A   Clear
9:55 AM 43.2 °F 35.6 °F 15.1 °F 32% 30.49 in 10.0 mi NW 16.1 mph - N/A   Clear
10:55 AM 45.5 °F 38.3 °F 13.6 °F 28% 30.47 in 10.0 mi WNW 17.3 mph 23.0 mph N/A   Clear
11:55 AM 46.0 °F 38.5 °F 12.2 °F 26% 30.43 in 10.0 mi WNW 19.6 mph - N/A   Clear
12:55 PM 47.5 °F - 9.5 °F 21% 30.38 in 10.0 mi WNW 21.9 mph 27.6 mph N/A   Clear
1:55 PM 48.7 °F - 9.9 °F 21% 30.35 in 10.0 mi WNW 19.6 mph 27.6 mph N/A   Clear
2:55 PM 47.7 °F - 9.1 °F 21% 30.35 in 10.0 mi WNW 19.6 mph 34.5 mph N/A   Clear
3:55 PM 45.9 °F 39.4 °F 9.3 °F 23% 30.35 in 10.0 mi WNW 15.0 mph - N/A   Clear
4:55 PM 42.4 °F 33.5 °F 9.9 °F 26% 30.37 in 10.0 mi NW 20.7 mph 31.1 mph N/A   Clear
5:55 PM 39.6 °F 31.0 °F 10.9 °F 31% 30.40 in 10.0 mi NW 16.1 mph - N/A   Clear
6:55 PM 38.3 °F 29.7 °F 9.1 °F 30% 30.42 in 10.0 mi NW 15.0 mph - N/A   Clear
7:55 PM 36.3 °F 28.9 °F 9.9 °F 33% 30.44 in 10.0 mi NW 10.4 mph - N/A   Clear
8:55 PM 35.8 °F 27.8 °F 8.2 °F 32% 30.44 in 10.0 mi WNW 11.5 mph - N/A   Clear
9:55 PM 35.2 °F 27.1 °F 8.4 °F 33% 30.45 in 10.0 mi NW 11.5 mph - N/A   Clear
10:55 PM 34.2 °F 26.2 °F 8.4 °F 34% 30.46 in 10.0 mi NW 10.4 mph - N/A   Clear
11:55 PM 33.3 °F 23.2 °F 6.3 °F 32% 30.46 in 10.0 mi NNW 15.0 mph 21.9 mph N/A   Clear